Regional Weather Roundup
Issued by NWS Goodland, KS

Home | Current Version | Previous Version | Graphics & Text | Print | Product List | Glossary On
Versions: 1 2 3 4 5 6 7 8 9 10 11 12 13 14 15 16 17 18 19 20 21 22 23 24 25 26 27 28 29 30 31 32 33 34 35 36 37 38 39 40 41 42 43 44 45 46 47 48 49 50
000
ASUS43 KGLD 281659
RWRGLD

GOODLAND FORECAST AREA HOURLY WEATHER ROUNDUP
NATIONAL WEATHER SERVICE GOODLAND KS
1100 AM MDT WED SEP 28 2016

...OFFICIAL OBSERVATIONS...

CITY           SKY/WX    TMP DP  RH WIND       PRES   REMARKS
GOODLAND KS    SUNNY     76  41  28 NE6       30.26S
HILL CITY KS   SUNNY     71  47  42 NE8       30.23R
IMPERIAL NEB   SUNNY     73  40  30 NW7       30.26S
MCCOOK NEB     SUNNY     70  43  37 CALM      30.24R
AKRON CO       SUNNY     71  37  28 VRB3      30.33S
BURLINGTON CO  SUNNY     76  37  24 MISG      30.29S
LIMON CO       SUNNY     77  28  16 NE8       30.35S
$$

...UNOFFICIAL OBSERVATIONS...

CITY           SKY/WX    TMP DP  RH WIND       PRES   REMARKS
COLBY KS       SUNNY     75  48  38 N6        30.26S
LENORA KS        N/A     70  32  24 MISG        N/A
NORTON KS      SUNNY     73  36  25 N9        30.22R
SHARON SPRINGS   N/A     78  46  31 NE12        N/A
KIT CARSON CO    N/A     76  43  31 MISG        N/A
$$




USA.gov is the U.S. government's official web portal to all federal, state and local government web resources and services.